Weather Roundup
Issued by NWS Chicago, IL

Home | Current Version | Previous Version | Text Only | Print | Product List | Glossary On
Versions: 1 2 3 4 5 6 7 8 9 10 11 12 13 14 15 16 17 18 19 20 21 22 23 24 25 26 27 28 29 30 31 32 33 34 35 36 37 38 39 40 41 42 43 44 45 46 47 48 49 50
000
NZUS59 KLOT 250009
HRRLOT

CHICAGO AREA WEATHER ROUNDUP
NATIONAL WEATHER SERVICE CHICAGO/ROMEOVILLE IL
700 PM CDT SUN SEP 24 2017

NOTE: "FAIR" INDICATES FEW OR NO CLOUDS BELOW 12,000 FEET WITH NO
SIGNIFICANT WEATHER AND/OR OBSTRUCTIONS TO VISIBILITY.

* THESE STATIONS ARE NOT UNDER NWS QUALITY CONTROL. THEY ALSO MAY NOT
  REPORT WEATHER SUCH AS PRECIPITATION OR FOG.

ILZ005-006-012>014-019>023-250100-
NORTHEAST ILLINOIS

CITY           SKY/WX    TMP DP  RH WIND       PRES   REMARKS
OHARE          PTCLDY    85  58  39 E10       30.00S HX  84
6HR MIN TEMP:  85; 6HR MAX TEMP:  93;

MIDWAY         PTCLDY    84  61  45 E8        30.01R HX  84
6HR MIN TEMP:  84; 6HR MAX TEMP:  92;

AURORA         CLEAR     80  63  55 SE5       30.00F HX  81
6HR MIN TEMP:  80; 6HR MAX TEMP:  90;

LANSING*       CLEAR     83  63  49 CALM      30.01S HX  84
JOLIET*        CLEAR     81  64  56 CALM      30.00S HX  82
WAUKEGAN       CLEAR     77  65  66 CALM      30.01S
6HR MIN TEMP:  77; 6HR MAX TEMP:  87;

DUPAGE AIRPORT CLEAR     81  61  50 S6        30.00S HX  82
6HR MIN TEMP:  81; 6HR MAX TEMP:  91;

WHEELING       CLEAR     82  62  50 SE5       30.02R HX  83
6HR MIN TEMP:  82; 6HR MAX TEMP:  92;

MORRIS*        CLEAR     80  61  53 E6        29.99S HX  81
LEWIS AIRPORT* CLEAR     80  61  52 SE5       30.01S HX  81
NORTHERLY ISL    N/A     77  65  66 E6          N/A
$$

WIZ051-052-058>065-066-070>072-250100-
SOUTHEAST WISCONSIN

CITY           SKY/WX    TMP DP  RH WIND       PRES   REMARKS
MILWAUKEE      PTCLDY    81  60  48 S7        30.01S HX  82
6HR MIN TEMP:  80; 6HR MAX TEMP:  90;

KENOSHA*       CLEAR     79  61  53 SE6       30.02S HX  80
RACINE*        CLEAR     79  62  56 S7        30.03S HX  80
WAUKESHA       CLEAR     79  57  47 SE12      30.03R HX  80
WEST BEND        N/A     77  59  53 SE5       30.02S
$$

INZ001>003-010>013-019-020-250100-
NORTHWEST INDIANA

CITY           SKY/WX    TMP DP  RH WIND       PRES   REMARKS
GARY*          PTCLDY    77  63  61 E3        30.02S
MICHIGAN CITY* NOT AVBL
RENSSELAER*    NOT AVBL
VALPARAISO     CLEAR     82  57  42 SE5       30.03S HX  82
$$

LMZ740>746-250100-
SOUTHERN LAKE MICHIGAN

STATION/POSITION TIME  SKY/WX   TEMP WIND        PRES    VSBY
                                AIR  DIR/SP/G
                 (UTC)          (F)  (DEG/KT/KT) (MB)    (MI)
HARRISON CRIB    2340            80   80/ 14/ 15   N/A
BURNHAM HARBOR   0000            76                N/A
CALUMET HARBOR   2342                 70/  5/  7   N/A
BURNS HARBOR     0000            74   CALM  /  9 1016.6
MICHIGAN CITY    2340            82   80/  5/  6   N/A
$$

ABBREVIATIONS USED IN REMARKS
   TC - TEMPERATURE IN CELSIUS
  WCI - WIND CHILL INDEX
   HX - HEAT INDEX
  VSB - VISIBILITY
$$



USA.gov is the U.S. government's official web portal to all federal, state and local government web resources and services.